Sigfox identifier Datetime Temperature Humidity SNR
0038B48B 2018-10-09 09:13:37 21.6 39 20.8
0038B48B 2018-10-09 08:07:26 21.5 38 20.7
0038B48B 2018-10-09 07:01:13 21.4 37 20.6
0038B48B 2018-10-09 05:54:59 21.4 37 20.7
0038B48B 2018-10-09 04:48:46 21.4 37 20.6
0038B48B 2018-10-09 01:30:15 21.4 37 19.8
0038B48B 2018-10-09 00:24:04 21.4 37 19.4
0038B48B 2018-10-08 23:17:54 21.4 37 19.1
0038B48B 2018-10-08 22:11:42 21.4 37 19
0038B48B 2018-10-08 21:05:32 21.4 37 18.9
0038B48B 2018-10-08 19:59:20 21.4 37 18.4
0038B48B 2018-10-08 18:53:07 21.4 37 18
0038B48B 2018-10-08 17:46:53 21.4 37 18.1
0038B48B 2018-10-08 16:40:43 21.4 36 17.5
0038B48B 2018-10-08 15:34:33 21.3 36 16.9
0038B48B 2018-10-08 14:28:26 21.2 35 16.9
0038B48B 2018-10-08 13:22:22 21.1 34 16.9
0038B48B 2018-10-08 12:16:13 21 34 16.8
0038B48B 2018-10-08 11:10:04 20.9 34 16.9
0038B48B 2018-10-08 10:03:56 20.7 34 16
0038B48B 2018-10-08 08:57:46 20.7 35 16
0038B48B 2018-10-08 07:51:35 20.7 37 15.3
0038B48B 2018-10-08 06:45:22 20.9 37 15.3
0038B48B 2018-10-08 05:39:11 20.9 38 15
0038B48B 2018-10-08 04:33:03 21 38 14.7
0038B48B 2018-10-08 03:26:53 21 38 14.7
0038B48B 2018-10-08 02:20:41 21 38 13.6
0038B48B 2018-10-08 01:14:34 21 38 13.8
0038B48B 2018-10-08 00:08:28 21 38 13.9
0038B48B 2018-10-07 23:02:18 21 38 13.7
0038B48B 2018-10-07 21:56:07 21.1 38 14
0038B48B 2018-10-07 20:49:55 21.1 38 14.1
0038B48B 2018-10-07 19:43:45 21.2 38 13.7
0038B48B 2018-10-07 18:37:34 21.2 38 13.7
0038B48B 2018-10-07 17:31:22 21.2 38 13.7
0038B48B 2018-10-07 16:25:12 21.2 38 14.3
0038B48B 2018-10-07 15:19:05 21.2 38 14.5
0038B48B 2018-10-07 14:12:54 21.2 39 14.5
0038B48B 2018-10-07 13:06:45 21.2 39 14.5
0038B48B 2018-10-07 12:00:32 21.2 39 14.5
0038B48B 2018-10-07 10:54:21 21.2 39 14.5
0038B48B 2018-10-07 09:48:09 21.2 39 14.7
0038B48B 2018-10-07 08:41:57 21.2 39 14.8
0038B48B 2018-10-07 07:35:46 21.2 39 14.9
0038B48B 2018-10-07 06:29:36 21.2 39 15
0038B48B 2018-10-07 05:23:25 21.3 39 15
0038B48B 2018-10-07 04:17:14 21.3 39 15.2
0038B48B 2018-10-07 03:11:05 21.4 39 15.1
0038B48B 2018-10-07 02:04:55 21.4 39 15.1
0038B48B 2018-10-07 00:58:44 21.4 39 15.3
0038B48B 2018-10-06 23:52:34 21.4 39 15.1
0038B48B 2018-10-06 22:46:23 21.4 39 18.5
0038B48B 2018-10-06 21:40:14 21.4 39 18.4
0038B48B 2018-10-06 20:34:03 21.4 39 18.4
0038B48B 2018-10-06 19:27:50 21.4 39 18.4
0038B48B 2018-10-06 18:21:38 21.5 39 18.2
0038B48B 2018-10-06 17:15:28 21.5 39 18.2
0038B48B 2018-10-06 16:09:18 21.4 39 18.4
0038B48B 2018-10-06 15:03:08 21.5 39 18.4
0038B48B 2018-10-06 13:56:59 21.5 39 18.6
0038B48B 2018-10-06 12:50:47 21.4 39 18.4
0038B48B 2018-10-06 11:44:32 21.4 40 18.6
0038B48B 2018-10-06 10:38:20 21.6 40 18.6
0038B48B 2018-10-06 09:32:04 21.5 40 18.8
0038B48B 2018-10-06 08:25:53 21.5 40 18.9
0038B48B 2018-10-06 07:19:41 21.6 40 18.9
0038B48B 2018-10-06 06:13:30 21.6 40 18.9
0038B48B 2018-10-06 05:07:21 21.6 40 18.8
0038B48B 2018-10-06 04:01:06 21.6 40 18.7
0038B48B 2018-10-06 02:54:54 21.6 40 18.7
0038B48B 2018-10-06 01:48:43 21.7 40 18.8
0038B48B 2018-10-06 00:42:26 21.7 40 18.8
0038B48B 2018-10-05 23:36:13 21.8 40 18.9
0038B48B 2018-10-05 22:29:53 21.8 40 18.8
0038B48B 2018-10-05 21:23:34 21.8 41 18.8
0038B48B 2018-10-05 20:17:16 21.8 41 18.9
0038B48B 2018-10-05 19:10:59 21.8 41 15.9
0038B48B 2018-10-05 18:04:43 21.8 41 16
0038B48B 2018-10-05 16:58:26 21.8 41 16.1
0038B48B 2018-10-05 15:52:12 21.8 40 16.1
0038B48B 2018-10-05 14:45:56 21.8 39 16.3
0038B48B 2018-10-05 13:39:41 21.7 38 16.3
0038B48B 2018-10-05 12:33:27 21.6 37 16
0038B48B 2018-10-05 11:27:13 21.4 35 16.1
0038B48B 2018-10-05 10:20:56 21.4 34 15.7
0038B48B 2018-10-05 09:14:41 21.2 33 15.9
0038B48B 2018-10-05 08:08:29 21.2 32 15
0038B48B 2018-10-05 07:02:12 21.2 32 14.9
0038B48B 2018-10-05 05:55:59 21.1 31 14.7
0038B48B 2018-10-05 04:49:49 21.1 31 14.5
0038B48B 2018-10-05 03:43:36 21.2 31 14.7
0038B48B 2018-10-05 02:37:27 21.2 32 14.7
0038B48B 2018-10-05 01:31:14 21.2 32 15
0038B48B 2018-10-05 00:25:00 21.2 32 14.9
0038B48B 2018-10-04 23:18:47 21.2 32 15.2
0038B48B 2018-10-04 22:12:37 21.2 32 18.5
0038B48B 2018-10-04 21:06:23 21.2 32 18.5
0038B48B 2018-10-04 20:00:10 21.2 31 18.5
0038B48B 2018-10-04 18:53:58 21.2 31 18.6
0038B48B 2018-10-04 17:47:45 21.2 31 18.6
0038B48B 2018-10-04 16:41:30 21 31 18.5
0038B48B 2018-10-04 14:29:06 20.9 32 18.5
0038B48B 2018-10-04 13:22:49 20.7 33 18.5
0038B48B 2018-10-04 12:16:35 20.7 33 18.4
0038B48B 2018-10-04 11:10:18 20.7 34 18.4
0038B48B 2018-10-04 10:04:03 20.7 35 18.3
0038B48B 2018-10-04 07:51:30 20.7 38 18.3
0038B48B 2018-10-04 06:45:17 20.7 39 18.3
0038B48B 2018-10-04 05:39:02 20.7 39 18.3
0038B48B 2018-10-04 04:32:51 20.7 39 18.3
0038B48B 2018-10-04 03:26:37 20.7 40 18.3
0038B48B 2018-10-04 02:20:25 20.7 40 18.4
0038B48B 2018-10-04 01:14:14 20.7 40 18.3
0038B48B 2018-10-04 00:07:58 20.8 40 18.3
0038B48B 2018-10-03 23:01:43 20.9 41 18.3
0038B48B 2018-10-03 21:55:26 20.9 41 18.4
0038B48B 2018-10-03 20:49:11 21 41 18.5
0038B48B 2018-10-03 19:42:54 21 41 18.6
0038B48B 2018-10-03 18:36:40 21 41 18.7
0038B48B 2018-10-03 17:30:26 21 42 18.8
0038B48B 2018-10-03 16:24:09 20.9 42 14.6
0038B48B 2018-10-03 15:17:56 20.7 44 14.8
0038B48B 2018-10-03 13:05:30 20.5 41 14.6
0038B48B 2018-10-03 10:53:03 20.7 41 14.5
0038B48B 2018-10-03 09:46:45 20.6 41 14.3
0038B48B 2018-10-03 08:40:32 20.3 40 14.5
0038B48B 2018-10-03 07:34:19 20.3 41 14.5
0038B48B 2018-10-03 06:28:09 20.5 41 14.7
0038B48B 2018-10-03 05:21:52 20.5 41 15
0038B48B 2018-10-03 04:15:36 20.5 41 15.3
0038B48B 2018-10-03 03:09:19 20.5 41 14.9
0038B48B 2018-10-03 02:03:03 20.5 41 15.2
0038B48B 2018-10-03 00:56:46 20.5 41 15.5
0038B48B 2018-10-02 23:50:33 20.5 41 15.3
0038B48B 2018-10-02 22:44:20 20.5 41 15.7
0038B48B 2018-10-02 21:38:04 20.5 41 15.5
0038B48B 2018-10-02 20:31:48 20.6 41 15.7
0038B48B 2018-10-02 19:25:30 20.6 42 16.8
0038B48B 2018-10-02 18:19:12 20.7 42 16.9
0038B48B 2018-10-02 17:12:56 20.7 43 19.8
0038B48B 2018-10-02 16:06:32 19.7 53 0